| time (UTC) | temp F | wind direction | speed MPH | gust MPH | rain 1hr in | rain 24hr in | rain mn in | humidity % | barometer mb |
| 20260509011502 | 69 | 128 | 1.0 | 3.0 | 0.00 | 0.20 | 0.01 | 37 | 1007.3 |
| 20260509010100 | 69 | 128 | 2.0 | 4.0 | 0.00 | 0.20 | 0.01 | 36 | 1007.4 |
| 20260509004559 | 70 | 120 | 0.0 | 2.0 | 0.00 | 0.20 | 0.01 | 35 | 1007.5 |
| 20260509003057 | 70 | 141 | 3.0 | 6.0 | 0.00 | 0.20 | 0.01 | 35 | 1007.6 |
| 20260509001554 | 70 | 125 | 1.0 | 9.0 | 0.00 | 0.20 | 0.01 | 35 | 1007.8 |
| 20260509000051 | 71 | 83 | 1.0 | 7.0 | 0.00 | 0.20 | 0.01 | 35 | 1008.0 |
| 20260508234552 | 71 | 75 | 1.0 | 4.0 | 0.00 | 0.20 | 0.01 | 34 | 1008.0 |
| 20260508233049 | 72 | 126 | 3.0 | 9.0 | 0.00 | 0.20 | 0.01 | 33 | 1008.1 |
| 20260508231546 | 72 | 76 | 1.0 | 13.0 | 0.00 | 0.20 | 0.01 | 34 | 1008.2 |
| 20260508230047 | 73 | 158 | 0.0 | 4.0 | 0.00 | 0.20 | 0.01 | 33 | 1008.4 |
| 20260508224544 | 73 | 33 | 2.0 | 8.0 | 0.00 | 0.20 | 0.01 | 33 | 1008.5 |
| 20260508223039 | 72 | 331 | 5.0 | 10.0 | 0.00 | 0.20 | 0.01 | 32 | 1008.8 |
| 20260508221536 | 71 | 131 | 3.0 | 7.0 | 0.00 | 0.20 | 0.01 | 35 | 1009.0 |
| 20260508220035 | 72 | 1 | 2.0 | 5.0 | 0.00 | 0.20 | 0.01 | 32 | 1009.1 |
| 20260508214535 | 72 | 21 | 1.0 | 8.0 | 0.00 | 0.20 | 0.01 | 33 | 1009.4 |
| 20260508213038 | 71 | 45 | 2.0 | 7.0 | 0.00 | 0.20 | 0.01 | 34 | 1009.8 |
| 20260508211536 | 69 | 309 | 2.0 | 9.0 | 0.00 | 0.20 | 0.01 | 33 | 1010.0 |
| 20260508210027 | 70 | 18 | 5.0 | 12.0 | 0.00 | 0.20 | 0.01 | 33 | 1010.3 |
| 20260508204524 | 70 | 33 | 5.0 | 9.0 | 0.00 | 0.20 | 0.01 | 34 | 1010.5 |
| 20260508203022 | 70 | 172 | 4.0 | 6.0 | 0.00 | 0.20 | 0.01 | 33 | 1010.8 |
| 20260508201520 | 69 | 177 | 3.0 | 10.0 | 0.00 | 0.20 | 0.01 | 34 | 1010.9 |
| 20260508200017 | 69 | 70 | 0.0 | 6.0 | 0.00 | 0.20 | 0.01 | 37 | 1011.0 |
| 20260508194526 | 68 | 9 | 2.0 | 10.0 | 0.00 | 0.20 | 0.01 | 40 | 1011.2 |
| 20260508193013 | 68 | 109 | 2.0 | 5.0 | 0.00 | 0.20 | 0.01 | 39 | 1011.5 |
| 20260508191510 | 67 | 52 | 4.0 | 9.0 | 0.00 | 0.20 | 0.01 | 40 | 1011.8 |
| 20260508190012 | 67 | 129 | 0.0 | 5.0 | 0.00 | 0.20 | 0.01 | 43 | 1012.0 |
| 20260508184508 | 66 | 92 | 3.0 | 7.0 | 0.00 | 0.20 | 0.01 | 47 | 1012.3 |
| 20260508183002 | 65 | 24 | 6.0 | 10.0 | 0.00 | 0.20 | 0.01 | 44 | 1012.6 |
| 20260508181608 | 65 | 45 | 2.0 | 6.0 | 0.00 | 0.20 | 0.01 | 47 | 1012.8 |
| 20260508180058 | 64 | 135 | 3.0 | 8.0 | 0.00 | 0.20 | 0.01 | 47 | 1013.1 |
| 20260508174558 | 63 | 142 | 1.0 | 10.0 | 0.00 | 0.20 | 0.01 | 54 | 1013.3 |
| 20260508173050 | 63 | 135 | 2.0 | 4.0 | 0.00 | 0.20 | 0.01 | 57 | 1013.6 |
| 20260508171547 | 61 | 235 | 2.0 | 6.0 | 0.00 | 0.20 | 0.01 | 58 | 1013.7 |
| 20260508170053 | 61 | 185 | 1.0 | 7.0 | 0.00 | 0.20 | 0.01 | 60 | 1013.9 |
| 20260508164547 | 60 | 130 | 3.0 | 5.0 | 0.00 | 0.20 | 0.01 | 62 | 1013.9 |
| 20260508163040 | 59 | 53 | 1.0 | 3.0 | 0.00 | 0.20 | 0.01 | 62 | 1014.1 |
| 20260508161539 | 59 | 102 | 1.0 | 3.0 | 0.00 | 0.20 | 0.01 | 64 | 1014.2 |
| 20260508160036 | 57 | 353 | 1.0 | 4.0 | 0.00 | 0.20 | 0.01 | 67 | 1014.4 |
| 20260508154549 | 56 | 218 | 0.0 | 3.0 | 0.00 | 0.20 | 0.01 | 71 | 1014.5 |
| 20260508153029 | 55 | 351 | 0.0 | 3.0 | 0.00 | 0.20 | 0.01 | 77 | 1014.7 |
| 20260508151525 | 53 | 25 | 0.0 | 3.0 | 0.00 | 0.20 | 0.01 | 79 | 1014.9 |
| 20260508150023 | 51 | 357 | 0.0 | 2.0 | 0.00 | 0.20 | 0.01 | 83 | 1015.1 |
| 20260508144518 | 50 | 315 | 1.0 | 3.0 | 0.00 | 0.20 | 0.01 | 86 | 1015.0 |
| 20260508143017 | 49 | 356 | 1.0 | 4.0 | 0.00 | 0.20 | 0.01 | 88 | 1015.1 |
| 20260508141523 | 47 | 287 | 0.0 | 2.0 | 0.00 | 0.20 | 0.01 | 91 | 1015.2 |
| 20260508140016 | 46 | 293 | 0.0 | 1.0 | 0.00 | 0.20 | 0.01 | 92 | 1015.3 |
| 20260508134515 | 44 | 261 | 0.0 | 1.0 | 0.00 | 0.20 | 0.01 | 93 | 1015.1 |
| 20260508133017 | 43 | 260 | 0.0 | 0.0 | 0.00 | 0.20 | 0.01 | 93 | 1015.1 |
| 20260508131514 | 42 | 260 | 0.0 | 2.0 | 0.00 | 0.20 | 0.01 | 92 | 1014.9 |
| 20260508130015 | 43 | 132 | 0.0 | 1.0 | 0.00 | 0.20 | 0.01 | 91 | 1014.9 |
| 20260508124515 | 43 | 132 | 0.0 | 1.0 | 0.00 | 0.20 | 0.01 | 92 | 1014.7 |
| 20260508123025 | 43 | 131 | 0.0 | 0.0 | 0.00 | 0.20 | 0.01 | 91 | 1014.7 |
| 20260508121515 | 42 | 146 | 2.0 | 3.0 | 0.00 | 0.20 | 0.01 | 92 | 1014.6 |
| 20260508120010 | 42 | 151 | 2.0 | 3.0 | 0.00 | 0.20 | 0.01 | 92 | 1014.6 |
| 20260508114508 | 42 | 137 | 0.0 | 0.0 | 0.00 | 0.20 | 0.01 | 92 | 1014.5 |
| 20260508113008 | 42 | 229 | 0.0 | 0.0 | 0.00 | 0.20 | 0.01 | 91 | 1014.5 |
| 20260508111504 | 42 | 229 | 0.0 | 0.0 | 0.00 | 0.20 | 0.01 | 90 | 1014.4 |
| 20260508110002 | 43 | 223 | 0.0 | 3.0 | 0.00 | 0.20 | 0.01 | 90 | 1014.4 |
| 20260508104502 | 44 | 144 | 2.0 | 5.0 | 0.00 | 0.20 | 0.01 | 90 | 1014.4 |
| 20260508103101 | 44 | 127 | 3.0 | 5.0 | 0.00 | 0.20 | 0.01 | 90 | 1014.4 |
| 20260508101558 | 44 | 151 | 3.0 | 4.0 | 0.00 | 0.20 | 0.01 | 89 | 1014.3 |
| 20260508100109 | 45 | 144 | 2.0 | 4.0 | 0.00 | 0.20 | 0.01 | 89 | 1014.3 |
| 20260508094605 | 45 | 142 | 3.0 | 4.0 | 0.00 | 0.20 | 0.01 | 88 | 1014.3 |
| 20260508093056 | 45 | 144 | 2.0 | 4.0 | 0.00 | 0.20 | 0.01 | 88 | 1014.3 |
| 20260508091603 | 45 | 151 | 2.0 | 3.0 | 0.00 | 0.20 | 0.01 | 88 | 1014.2 |
| 20260508090113 | 45 | 140 | 2.0 | 3.0 | 0.00 | 0.20 | 0.01 | 88 | 1014.3 |
| 20260508084552 | 45 | 158 | 2.0 | 4.0 | 0.00 | 0.20 | 0.01 | 88 | 1014.3 |
| 20260508083051 | 46 | 161 | 2.0 | 5.0 | 0.00 | 0.20 | 0.01 | 88 | 1014.4 |
| 20260508081603 | 46 | 142 | 2.0 | 5.0 | 0.00 | 0.20 | 0.01 | 88 | 1014.4 |
| 20260508080047 | 47 | 135 | 0.0 | 3.0 | 0.01 | 0.20 | 0.01 | 88 | 1014.5 |
| 20260508074548 | 47 | 137 | 2.0 | 4.0 | 0.01 | 0.20 | 0.01 | 88 | 1014.6 |
| 20260508073102 | 48 | 154 | 1.0 | 9.0 | 0.01 | 0.20 | 0.01 | 87 | 1014.5 |
| 20260508071544 | 48 | 190 | 4.0 | 7.0 | 0.01 | 0.20 | 0.01 | 87 | 1014.5 |
| 20260508070046 | 49 | 145 | 5.0 | 9.0 | 0.00 | 0.19 | 0.00 | 87 | 1014.7 |
| 20260508064539 | 49 | 238 | 4.0 | 8.0 | 0.01 | 0.19 | 0.00 | 87 | 1015.1 |
| 20260508063040 | 49 | 227 | 4.0 | 8.0 | 0.02 | 0.19 | 0.00 | 87 | 1014.9 |
| 20260508061542 | 49 | 253 | 3.0 | 9.0 | 0.07 | 0.19 | 0.00 | 88 | 1014.6 |
| 20260508060039 | 49 | 244 | 7.0 | 11.0 | 0.09 | 0.19 | 0.00 | 89 | 1014.5 |
| 20260508054537 | 49 | 221 | 2.0 | 6.0 | 0.11 | 0.18 | 0.18 | 88 | 1014.3 |
| 20260508053034 | 49 | 236 | 4.0 | 7.0 | 0.11 | 0.18 | 0.18 | 89 | 1014.7 |
| 20260508051530 | 50 | 266 | 6.0 | 10.0 | 0.06 | 0.13 | 0.13 | 90 | 1015.5 |
| 20260508050028 | 49 | 262 | 3.0 | 4.0 | 0.05 | 0.10 | 0.10 | 90 | 1015.2 |
| 20260508044528 | 49 | 292 | 1.0 | 3.0 | 0.02 | 0.07 | 0.07 | 89 | 1014.8 |
| 20260508043028 | 49 | 164 | 5.0 | 9.0 | 0.02 | 0.07 | 0.07 | 90 | 1014.0 |
| 20260508041527 | 49 | 209 | 3.0 | 5.0 | 0.02 | 0.07 | 0.07 | 89 | 1014.2 |
| 20260508040027 | 49 | 317 | 1.0 | 4.0 | 0.05 | 0.05 | 0.05 | 88 | 1014.4 |
| 20260508034539 | 49 | 336 | 3.0 | 5.0 | 0.05 | 0.05 | 0.05 | 88 | 1014.1 |
| 20260508033026 | 49 | 62 | 0.0 | 2.0 | 0.05 | 0.05 | 0.05 | 86 | 1013.6 |
| 20260508031531 | 49 | 48 | 5.0 | 11.0 | 0.05 | 0.05 | 0.05 | 85 | 1013.5 |
| 20260508030024 | 50 | 26 | 9.0 | 12.0 | 0.00 | 0.00 | 0.00 | 80 | 1014.0 |
| 20260508024547 | 51 | 25 | 11.0 | 20.0 | 0.00 | 0.00 | 0.00 | 77 | 1013.1 |
| 20260508023023 | 52 | 9 | 13.0 | 20.0 | 0.00 | 0.00 | 0.00 | 75 | 1012.8 |
| 20260508021522 | 57 | 34 | 18.0 | 23.0 | 0.00 | 0.00 | 0.00 | 63 | 1012.4 |
| 20260508020019 | 58 | 20 | 6.0 | 9.0 | 0.00 | 0.00 | 0.00 | 57 | 1011.6 |
| 20260508014523 | 58 | 3 | 7.0 | 13.0 | 0.00 | 0.00 | 0.00 | 56 | 1011.5 |
| 20260508013022 | 59 | 31 | 5.0 | 10.0 | 0.00 | 0.00 | 0.00 | 55 | 1011.1 |